User: anonymous   Login
Location: Unspecified
(0.0000°N, 0.0000°E)
Time: 22:36:38
(UTC+00:00)
Language:

STARLINK-33578 - Orbit

View from above orbital plane
View from above orbital plane
View from above satellite
View from above satellite

Ground track
Ground track

The orbit is defined by the following mean orbital elements,

1 63368U          26144.96776520 +.00000000 +00000-0 +89403-3 0 00005
2 63368  53.1581  55.6257 0001011  73.5916 286.5196 15.30202419    09
Epoch (UTC): 24 May 2026 23:13:34
Eccentricity: 0.0001011
inclination: 53.1581°
perigee height: 475 km
apogee height: 476 km
right ascension of ascending node: 55.6257°
argument of perigee: 73.5916°
revolutions per day: 15.30202419
mean anomaly at epoch: 286.5196°

The dashed part of the orbit path shows where the satellite is in the earth's shadow,  

DLR